Home > Weather > Cap-Haïtien > Past weeks

Flag for Haiti Weather for the Past 2 Weeks in Cap-Haïtien, Haiti

Now
75 °F

Passing clouds.


Feels Like: 75 °F
Forecast: 74 / 84 °F
Wind: No wind

Location: Santiago

Current Time: Feb 8, 2016 at 11:05:52 PM

Latest Report: Feb 8, 2016 at 10:00 PM


Visibility: N/A

Pressure: 30.01 "Hg

Humidity: 83%

Dew point: 70 °F

Location of Cap-HaïtienLocation

Historic Weather in Cap-Haïtien — Graph

°F

Cap-Haïtien Temperature Yesterday

Maximum temperature yesterday: 84 °F (at 2:00 PM)
Minimum temperature yesterday: 66 °F (at 4:00 AM)
Average temperature yesterday: 76 °F

High & Low Weather Summary for the Past Weeks

 TemperatureHumidityPressure
High88 °F (Jan 31, 3:00 PM)100% (Jan 25, 2:00 AM)30.21 "Hg (Jan 25, 2:00 AM)
Low59 °F (Feb 5, 5:00 AM)33% (Feb 4, 2:00 PM)29.92 "Hg (Jan 28, 3:00 PM)
Average75 °F82%30.02 "Hg
* Reported Jan 24 9:00 PM — Feb 8 9:00 PM, Cap-Haïtien, Weather by CustomWeather, © 2016

Note: Actual official high and low records may vary slightly from our data, if they occured in-between our weather recording intervals... More about our weather records

Advertising

Cap-Haïtien Weather History for the Previous 24 Hours

 ConditionsComfort  
Time TempWeatherWind HumidityBarometerVisibility
9:00 PM
Mon, Feb 8
75 °FPassing clouds.No wind83%30.01 "HgN/A
8:00 PM77 °FPassing clouds.6 mph79%30.01 "HgN/A
7:00 PM79 °FPassing clouds.9 mph74%29.95 "HgN/A
6:00 PM81 °FPassing clouds.7 mph66%29.95 "HgN/A
5:00 PM84 °FScattered clouds.13 mph51%29.92 "HgN/A
4:00 PM86 °FPartly sunny.14 mph52%29.92 "HgN/A
3:00 PM86 °FPartly sunny.6 mph55%29.92 "HgN/A
2:00 PM86 °FPassing clouds.7 mph55%29.92 "HgN/A
1:00 PM86 °FPassing clouds.7 mph52%29.98 "HgN/A
12:00 PM86 °FPassing clouds.6 mph55%29.98 "HgN/A
11:00 AM82 °FWarm.6 mph62%30.04 "HgN/A
10:00 AM79 °FScattered clouds.5 mph74%30.07 "HgN/A
9:00 AM75 °FPartly sunny.No wind89%30.04 "HgN/A
8:00 AM72 °FFog.3 mph94%30.04 "Hg2 mi
7:00 AM68 °FFog.No wind100%30.04 "Hg1 mi
6:00 AM70 °FFog.3 mph100%30.01 "Hg1 mi
5:00 AM70 °FFog.No wind100%29.98 "Hg1 mi
4:00 AM70 °FFog.3 mph100%29.98 "Hg3 mi
3:00 AM70 °FPassing clouds.3 mph100%29.98 "HgN/A
2:00 AM70 °FPassing clouds.5 mph100%29.98 "HgN/A
1:00 AM72 °FPassing clouds.No wind100%30.01 "HgN/A
12:00 AM73 °FPassing clouds.3 mph94%30.01 "HgN/A
11:00 PM
Sun, Feb 7
75 °FPassing clouds.3 mph89%30.04 "HgN/A
Weather by CustomWeather, © 2016

See weather overviewHow to use our weather pages